Weather History for St. Johnsbury, VT

Change the Weather History Date:

Monday, January 21, 2013

  Actual Average Record
Temperature  
Mean Temperature 9 °F 16 °F  
Max Temperature 19 °F 27 °F 53 °F (2006)
Min Temperature -1 °F 6 °F -22 °F (1936)
Degree Days  
Heating Degree Days 56 49  
Month to date heating degree days 931 1012  
Since 1 July heating degree days 3748 3965  
Moisture  
Dew Point 1 °F    
Average Humidity 63    
Maximum Humidity 87    
Minimum Humidity 39    
Precipitation  
Precipitation 0.01 in 0.08 in 1.12 in (1979)
Month to date precipitation 0.76 1.69  
Year to date precipitation 0.76 1.69  
Sea Level Pressure  
Sea Level Pressure 29.98 in    
Wind  
Wind Speed - (North)    
Max Wind Speed -    
Max Gust Speed -    
T = Trace of Precipitation, MM = Missing Value Source: NWS Daily Summary

Daily Weather History Graph

Daily Weather History Graph

Search for Another Location

Airport:

Trip Planner

Search our weather history database for the weather conditions in past years. The results will help you decide how hot, cold, wet, or windy it might be!

Date:

Astronomy

Jan. 21, 2013 Rise Set
Actual Time 7:16 AM EST 4:42 PM EST
Civil Twilight 6:44 AM EST 5:14 PM EST
Nautical Twilight 6:09 AM EST 5:50 PM EST
Astronomical Twilight 5:34 AM EST 6:24 PM EST
Moon 12:19 PM EST 2:42 AM EST
Length of Visible Light 10h 29m
Length of Day
9h 25m
Waxing Gibbous, 75% of the Moon is Illuminated
Jan 21
Waxing Gibbous
Jan 26
Full
Feb 3
Last Quarter
Feb 10
New
Feb 17
First Quarter

Hourly Weather History & Observations

Time (EST) Temp. Dew Point Humidity Pressure Visibility Wind Dir Wind Speed Gust Speed Precip Events Conditions
12:54 AM 10.9 °F 1.0 °F 64% 29.95 in - North - - N/A   Unknown
1:54 AM 10.0 °F -0.0 °F 64% 29.96 in - North - - N/A   Unknown
2:54 AM 8.1 °F -0.9 °F 67% 29.98 in - North - - N/A   Unknown
3:54 AM 7.0 °F -2.0 °F 67% 29.99 in - North - - N/A   Unknown
4:54 AM 5.0 °F -2.9 °F 70% 30.01 in - North - - N/A   Unknown
5:54 AM 1.0 °F -2.9 °F 83% 30.03 in - North - - N/A   Unknown
6:54 AM 1.0 °F -2.9 °F 83% 30.05 in - North - - N/A   Unknown
7:54 AM -0.9 °F -5.1 °F 83% 30.07 in - North - - N/A   Unknown
8:54 AM 1.0 °F -4.0 °F 79% 30.08 in - North - - N/A   Unknown
9:54 AM 6.1 °F -2.9 °F 67% 30.08 in - North - - N/A   Unknown
10:54 AM 10.9 °F -0.0 °F 61% 30.06 in - North - - N/A   Unknown
11:54 AM 14.0 °F -0.0 °F 54% 30.02 in - North - - N/A   Unknown
12:54 PM 16.0 °F -0.0 °F 49% 29.97 in - North - - N/A   Unknown
1:54 PM 19.0 °F -2.9 °F 38% 29.95 in - North - - N/A   Unknown
2:54 PM 19.0 °F -2.0 °F 40% 29.95 in - North - - N/A   Unknown
3:54 PM 18.0 °F -2.0 °F 41% 29.94 in - North - - N/A   Unknown
4:54 PM 18.0 °F -0.0 °F 45% 29.94 in - North - - N/A   Unknown
5:54 PM 17.1 °F 3.9 °F 56% 29.94 in - North - - N/A   Unknown
6:54 PM 15.1 °F 8.1 °F 74% 29.96 in - North - - N/A   Unknown
7:54 PM 14.0 °F 6.1 °F 71% 29.96 in - North - - N/A   Unknown
8:54 PM 12.9 °F 8.1 °F 81% 29.94 in - North - - N/A   Unknown
9:54 PM 12.9 °F 8.1 °F 81% 29.91 in - North - - N/A   Unknown
10:54 PM 12.0 °F 8.1 °F 84% 29.87 in - North - - 0.01 in   Unknown
11:54 PM 12.0 °F 8.1 °F 84% 29.82 in - North - - N/A   Unknown